TimeCST,TemperatureF,Dew PointF,Humidity,Sea Level PressureIn,VisibilityMPH,Wind Direction,Wind SpeedMPH,Gust SpeedMPH,PrecipitationIn,Events,Conditions,WindDirDegrees,DateUTC
12:53 AM,52.0,50.0,93,29.94,8.0,South,9.2,-,N/A,,Overcast,170,2012-12-16 06:53:00
1:53 AM,51.1,48.9,92,29.92,7.0,Variable,5.8,-,N/A,,Overcast,0,2012-12-16 07:53:00
2:53 AM,50.0,48.9,96,29.93,3.0,South,8.1,-,0.23,Rain,Rain,170,2012-12-16 08:53:00
3:10 AM,50.0,48.2,94,29.93,5.0,South,4.6,-,0.03,Rain,Light Rain,180,2012-12-16 09:10:00
3:21 AM,50.0,48.2,94,29.93,8.0,South,6.9,-,0.03,,Overcast,180,2012-12-16 09:21:00
3:42 AM,50.0,48.2,94,29.93,2.5,SSE,4.6,-,0.08,Rain,Rain,160,2012-12-16 09:42:00
3:53 AM,50.0,48.0,93,29.91,2.5,SSE,4.6,-,0.12,Rain,Rain,160,2012-12-16 09:53:00
4:03 AM,50.0,48.2,94,29.91,5.0,SSE,4.6,-,0.00,Rain,Light Rain,150,2012-12-16 10:03:00
4:53 AM,51.1,50.0,96,29.90,6.0,Calm,Calm,-,0.07,Rain,Light Rain,0,2012-12-16 10:53:00
5:11 AM,51.8,50.0,94,29.92,1.8,South,3.5,-,0.08,Rain,Heavy Rain,180,2012-12-16 11:11:00
5:15 AM,51.8,50.0,94,29.91,2.0,South,4.6,-,0.09,Rain,Light Rain,180,2012-12-16 11:15:00
5:18 AM,51.8,50.0,94,29.92,4.0,South,4.6,-,0.09,Rain,Light Rain,190,2012-12-16 11:18:00
5:26 AM,51.8,50.0,94,29.91,7.0,Variable,4.6,-,0.09,Rain,Light Rain,0,2012-12-16 11:26:00
5:49 AM,51.8,50.0,94,29.92,10.0,South,5.8,-,0.11,,Overcast,170,2012-12-16 11:49:00
5:53 AM,51.1,50.0,96,29.91,10.0,SSE,5.8,-,0.11,,Overcast,160,2012-12-16 11:53:00
7:29 AM,51.8,50.0,94,29.92,10.0,South,3.5,-,0.00,,Overcast,180,2012-12-16 13:29:00
7:45 AM,51.8,50.0,94,29.92,10.0,South,6.9,-,0.00,,Overcast,170,2012-12-16 13:45:00
7:53 AM,52.0,50.0,93,29.90,6.0,Variable,3.5,-,0.01,Rain,Light Rain,0,2012-12-16 13:53:00
8:26 AM,51.8,51.8,100,29.92,10.0,South,6.9,-,0.01,,Overcast,170,2012-12-16 14:26:00
8:53 AM,53.1,51.1,93,29.94,10.0,SSW,8.1,-,0.01,,Overcast,210,2012-12-16 14:53:00
9:53 AM,53.1,52.0,96,29.92,10.0,SE,4.6,-,0.01,,Overcast,140,2012-12-16 15:53:00
10:13 AM,53.6,51.8,94,29.94,10.0,South,4.6,-,N/A,,Overcast,180,2012-12-16 16:13:00
10:53 AM,54.0,52.0,93,29.88,10.0,South,8.1,-,N/A,,Overcast,170,2012-12-16 16:53:00
11:53 AM,55.0,52.0,89,29.86,10.0,Variable,6.9,23.0,N/A,,Mostly Cloudy,0,2012-12-16 17:53:00
12:37 PM,53.6,51.8,94,29.89,10.0,Variable,5.8,-,N/A,,Overcast,0,2012-12-16 18:37:00
12:53 PM,54.0,52.0,93,29.83,10.0,South,10.4,19.6,N/A,,Overcast,170,2012-12-16 18:53:00
1:53 PM,55.0,52.0,89,29.80,10.0,South,9.2,19.6,N/A,,Overcast,180,2012-12-16 19:53:00
2:53 PM,55.0,52.0,89,29.80,10.0,South,11.5,19.6,N/A,,Overcast,180,2012-12-16 20:53:00
4:53 PM,55.0,51.1,86,29.85,10.0,Variable,3.5,-,0.00,Rain,Light Rain,0,2012-12-16 22:53:00
5:53 PM,55.0,52.0,89,29.86,10.0,South,10.4,16.1,0.01,,Overcast,190,2012-12-16 23:53:00
6:53 PM,55.0,51.1,86,29.85,10.0,South,8.1,19.6,N/A,,Overcast,180,2012-12-17 00:53:00
7:40 PM,53.6,51.8,94,29.82,10.0,South,12.7,23.0,N/A,,Mostly Cloudy,170,2012-12-17 01:40:00
7:53 PM,54.0,51.1,90,29.80,10.0,South,15.0,24.2,N/A,,Mostly Cloudy,180,2012-12-17 01:53:00
8:06 PM,53.6,50.0,88,29.81,10.0,South,13.8,21.9,N/A,,Mostly Cloudy,170,2012-12-17 02:06:00
8:22 PM,53.6,50.0,88,29.82,10.0,South,11.5,19.6,N/A,,Mostly Cloudy,170,2012-12-17 02:22:00
8:53 PM,53.1,50.0,89,29.81,10.0,South,13.8,21.9,N/A,,Overcast,170,2012-12-17 02:53:00
9:27 PM,53.6,48.2,82,29.83,10.0,South,9.2,16.1,N/A,,Scattered Clouds,170,2012-12-17 03:27:00
9:42 PM,53.6,48.2,82,29.82,10.0,South,8.1,-,N/A,,Mostly Cloudy,170,2012-12-17 03:42:00
9:53 PM,53.1,48.9,86,29.81,10.0,Variable,6.9,-,N/A,,Scattered Clouds,0,2012-12-17 03:53:00
10:53 PM,52.0,48.0,86,29.81,10.0,Variable,5.8,-,N/A,,Partly Cloudy,0,2012-12-17 04:53:00
11:53 PM,52.0,48.0,86,29.79,10.0,Variable,4.6,-,N/A,,Clear,0,2012-12-17 05:53:00